Year,Month,Day,Hour,Minute,Value (Times are PST for temperature in C)
2016,08,18,00,00,16.80
2016,08,18,00,01,16.80
2016,08,18,00,02,16.80
2016,08,18,00,03,16.80
2016,08,18,00,04,16.80
2016,08,18,00,05,16.80
2016,08,18,00,06,16.80
2016,08,18,00,07,16.80
2016,08,18,00,08,16.80
2016,08,18,00,09,16.80
2016,08,18,00,10,16.80
2016,08,18,00,11,16.80
2016,08,18,00,12,16.70
2016,08,18,00,13,16.70
2016,08,18,00,14,16.70
2016,08,18,00,15,16.70
2016,08,18,00,16,16.70
2016,08,18,00,17,16.70
2016,08,18,00,18,16.70
2016,08,18,00,19,16.70
2016,08,18,00,20,16.70
2016,08,18,00,21,16.70
2016,08,18,00,22,16.70
2016,08,18,00,23,16.70
2016,08,18,00,24,16.70
2016,08,18,00,25,16.80
2016,08,18,00,26,16.80
2016,08,18,00,27,16.80
2016,08,18,00,28,16.80
2016,08,18,00,29,16.80
2016,08,18,00,30,16.80
2016,08,18,00,31,16.80
2016,08,18,00,32,16.80
2016,08,18,00,33,16.80
2016,08,18,00,34,16.80
2016,08,18,00,35,16.80
2016,08,18,00,36,16.90
2016,08,18,00,37,16.90
2016,08,18,00,38,16.90
2016,08,18,00,39,16.80
2016,08,18,00,40,16.80
2016,08,18,00,41,16.80
2016,08,18,00,42,16.80
2016,08,18,00,43,16.80
2016,08,18,00,44,16.80
2016,08,18,00,45,16.80
2016,08,18,00,46,16.80
2016,08,18,00,47,16.80
2016,08,18,00,48,16.70
2016,08,18,00,49,16.70
2016,08,18,00,50,16.70
2016,08,18,00,51,16.70
2016,08,18,00,52,16.70
2016,08,18,00,53,16.70
2016,08,18,00,54,16.60
2016,08,18,00,55,16.60
2016,08,18,00,56,16.60
2016,08,18,00,57,16.60
2016,08,18,00,58,16.50
2016,08,18,00,59,16.50
2016,08,18,01,00,16.40
2016,08,18,01,01,16.30
2016,08,18,01,02,16.30
2016,08,18,01,03,16.30
2016,08,18,01,04,16.20
2016,08,18,01,05,16.20
2016,08,18,01,06,16.20
2016,08,18,01,07,16.10
2016,08,18,01,08,16.10
2016,08,18,01,09,16.10
2016,08,18,01,10,16.00
2016,08,18,01,11,16.00
2016,08,18,01,12,16.00
2016,08,18,01,13,15.90
2016,08,18,01,14,15.90
2016,08,18,01,15,15.90
2016,08,18,01,16,15.90
2016,08,18,01,17,15.90
2016,08,18,01,18,15.90
2016,08,18,01,19,15.80
2016,08,18,01,20,15.80
2016,08,18,01,21,15.80
2016,08,18,01,22,15.80
2016,08,18,01,23,15.80
2016,08,18,01,24,15.80
2016,08,18,01,25,15.80
2016,08,18,01,26,15.80
2016,08,18,01,27,15.80
2016,08,18,01,28,15.80
2016,08,18,01,29,15.80
2016,08,18,01,30,15.80
2016,08,18,01,31,15.80
2016,08,18,01,32,15.80
2016,08,18,01,33,15.80
2016,08,18,01,34,15.80
2016,08,18,01,35,15.80
2016,08,18,01,36,15.80
2016,08,18,01,37,15.80
2016,08,18,01,38,15.80
2016,08,18,01,39,15.80
2016,08,18,01,40,15.70
2016,08,18,01,41,15.70
2016,08,18,01,42,15.70
2016,08,18,01,43,15.70
2016,08,18,01,44,15.80
2016,08,18,01,45,15.80
2016,08,18,01,46,15.80
2016,08,18,01,47,15.80
2016,08,18,01,48,15.80
2016,08,18,01,49,15.80
2016,08,18,01,50,15.80
2016,08,18,01,51,15.80
2016,08,18,01,52,15.80
2016,08,18,01,53,15.80
2016,08,18,01,54,15.80
2016,08,18,01,55,15.80
2016,08,18,01,56,15.80
2016,08,18,01,57,15.70
2016,08,18,01,58,15.70
2016,08,18,01,59,15.70
2016,08,18,02,00,15.70
2016,08,18,02,01,15.70
2016,08,18,02,02,15.70
2016,08,18,02,03,15.70
2016,08,18,02,04,15.70
2016,08,18,02,05,15.70
2016,08,18,02,06,15.70
2016,08,18,02,07,15.60
2016,08,18,02,08,15.60
2016,08,18,02,09,15.60
2016,08,18,02,10,15.60
2016,08,18,02,11,15.60
2016,08,18,02,12,15.60
2016,08,18,02,13,15.60
2016,08,18,02,14,15.60
2016,08,18,02,15,15.60
2016,08,18,02,16,15.60
2016,08,18,02,17,15.60
2016,08,18,02,18,15.60
2016,08,18,02,19,15.60
2016,08,18,02,20,15.60
2016,08,18,02,21,15.60
2016,08,18,02,22,15.60
2016,08,18,02,23,15.60
2016,08,18,02,24,15.60
2016,08,18,02,25,15.60
2016,08,18,02,26,15.60
2016,08,18,02,27,15.60
2016,08,18,02,28,15.60
2016,08,18,02,29,15.60
2016,08,18,02,30,15.60
2016,08,18,02,31,15.50
2016,08,18,02,32,15.50
2016,08,18,02,33,15.50
2016,08,18,02,34,15.50
2016,08,18,02,35,15.50
2016,08,18,02,36,15.50
2016,08,18,02,37,15.50
2016,08,18,02,38,15.50
2016,08,18,02,39,15.40
2016,08,18,02,40,15.40
2016,08,18,02,41,15.40
2016,08,18,02,42,15.40
2016,08,18,02,43,15.40
2016,08,18,02,44,15.40
2016,08,18,02,45,15.40
2016,08,18,02,46,15.40
2016,08,18,02,47,15.40
2016,08,18,02,48,15.40
2016,08,18,02,49,15.50
2016,08,18,02,50,15.50
2016,08,18,02,51,15.50
2016,08,18,02,52,15.60
2016,08,18,02,53,15.60
2016,08,18,02,54,15.60
2016,08,18,02,55,15.60
2016,08,18,02,56,15.60
2016,08,18,02,57,15.60
2016,08,18,02,58,15.60
2016,08,18,02,59,15.60
2016,08,18,03,00,15.60
2016,08,18,03,01,15.70
2016,08,18,03,02,15.60
2016,08,18,03,03,15.60
2016,08,18,03,04,15.60
2016,08,18,03,05,15.60
2016,08,18,03,06,15.60
2016,08,18,03,07,15.60
2016,08,18,03,08,15.60
2016,08,18,03,09,15.60
2016,08,18,03,10,15.50
2016,08,18,03,11,15.50
2016,08,18,03,12,15.50
2016,08,18,03,13,15.50
2016,08,18,03,14,15.50
2016,08,18,03,15,15.50
2016,08,18,03,16,15.50
2016,08,18,03,17,15.60
2016,08,18,03,18,15.60
2016,08,18,03,19,15.60
2016,08,18,03,20,15.60
2016,08,18,03,21,15.60
2016,08,18,03,22,15.60
2016,08,18,03,23,15.60
2016,08,18,03,24,15.60
2016,08,18,03,25,15.60
2016,08,18,03,26,15.60
2016,08,18,03,27,15.60
2016,08,18,03,28,15.60
2016,08,18,03,29,15.60
2016,08,18,03,30,15.60
2016,08,18,03,31,15.60
2016,08,18,03,32,15.60
2016,08,18,03,33,15.60
2016,08,18,03,34,15.60
2016,08,18,03,35,15.60
2016,08,18,03,36,15.60
2016,08,18,03,37,15.60
2016,08,18,03,38,15.60
2016,08,18,03,39,15.60
2016,08,18,03,40,15.60
2016,08,18,03,41,15.60
2016,08,18,03,42,15.60
2016,08,18,03,43,15.60
2016,08,18,03,44,15.60
2016,08,18,03,45,15.60
2016,08,18,03,46,15.60
2016,08,18,03,47,15.60
2016,08,18,03,48,15.60
2016,08,18,03,49,15.50
2016,08,18,03,50,15.50
2016,08,18,03,51,15.50
2016,08,18,03,52,15.50
2016,08,18,03,53,15.50
2016,08,18,03,54,15.50
2016,08,18,03,55,15.50
2016,08,18,03,56,15.50
2016,08,18,03,57,15.50
2016,08,18,03,58,15.50
2016,08,18,03,59,15.50
2016,08,18,04,00,15.40
2016,08,18,04,01,15.40
2016,08,18,04,02,15.40
2016,08,18,04,03,15.40
2016,08,18,04,04,15.40
2016,08,18,04,05,15.40
2016,08,18,04,06,15.40
2016,08,18,04,07,15.30
2016,08,18,04,08,15.30
2016,08,18,04,09,15.30
2016,08,18,04,10,15.30
2016,08,18,04,11,15.30
2016,08,18,04,12,15.30
2016,08,18,04,13,15.30
2016,08,18,04,14,15.20
2016,08,18,04,15,15.20
2016,08,18,04,16,15.20
2016,08,18,04,17,15.20
2016,08,18,04,18,15.20
2016,08,18,04,19,15.20
2016,08,18,04,20,15.20
2016,08,18,04,21,15.20
2016,08,18,04,22,15.10
2016,08,18,04,23,15.10
2016,08,18,04,24,15.10
2016,08,18,04,25,15.10
2016,08,18,04,26,15.10
2016,08,18,04,27,15.10
2016,08,18,04,28,15.10
2016,08,18,04,29,15.00
2016,08,18,04,30,15.00
2016,08,18,04,31,15.00
2016,08,18,04,32,15.00
2016,08,18,04,33,15.00
2016,08,18,04,34,15.00
2016,08,18,04,35,15.00
2016,08,18,04,36,15.00
2016,08,18,04,37,14.90
2016,08,18,04,38,14.90
2016,08,18,04,39,14.90
2016,08,18,04,40,14.90
2016,08,18,04,41,14.90
2016,08,18,04,42,14.90
2016,08,18,04,43,14.90
2016,08,18,04,44,14.90
2016,08,18,04,45,14.90
2016,08,18,04,46,14.90
2016,08,18,04,47,14.90
2016,08,18,04,48,14.90
2016,08,18,04,49,14.90
2016,08,18,04,50,14.90
2016,08,18,04,51,14.90
2016,08,18,04,52,14.90
2016,08,18,04,53,14.90
2016,08,18,04,54,14.90
2016,08,18,04,55,14.90
2016,08,18,04,56,14.90
2016,08,18,04,57,14.90
2016,08,18,04,58,14.90
2016,08,18,04,59,14.90
2016,08,18,05,00,14.80
2016,08,18,05,01,14.80
2016,08,18,05,02,14.80
2016,08,18,05,03,14.80
2016,08,18,05,04,14.80
2016,08,18,05,05,14.80
2016,08,18,05,06,14.80
2016,08,18,05,07,14.80
2016,08,18,05,08,14.90
2016,08,18,05,09,14.80
2016,08,18,05,10,14.90
2016,08,18,05,11,14.90
2016,08,18,05,12,14.90
2016,08,18,05,13,14.90
2016,08,18,05,14,14.80
2016,08,18,05,15,14.80
2016,08,18,05,16,14.80
2016,08,18,05,17,14.80
2016,08,18,05,18,14.80
2016,08,18,05,19,14.80
2016,08,18,05,20,14.80
2016,08,18,05,21,14.80
2016,08,18,05,22,14.80
2016,08,18,05,23,14.80
2016,08,18,05,24,14.80
2016,08,18,05,25,14.80
2016,08,18,05,26,14.80
2016,08,18,05,27,14.80
2016,08,18,05,28,14.80
2016,08,18,05,29,14.80
2016,08,18,05,30,14.80
2016,08,18,05,31,14.80
2016,08,18,05,32,14.80
2016,08,18,05,33,14.70
2016,08,18,05,34,14.70
2016,08,18,05,35,14.70
2016,08,18,05,36,14.70
2016,08,18,05,37,14.60
2016,08,18,05,38,14.60
2016,08,18,05,39,14.60
2016,08,18,05,40,14.60
2016,08,18,05,41,14.60
2016,08,18,05,42,14.60
2016,08,18,05,43,14.60
2016,08,18,05,44,14.60
2016,08,18,05,45,14.60
2016,08,18,05,46,14.60
2016,08,18,05,47,14.50
2016,08,18,05,48,14.50
2016,08,18,05,49,14.50
2016,08,18,05,50,14.50
2016,08,18,05,51,14.50
2016,08,18,05,52,14.50
2016,08,18,05,53,14.50
2016,08,18,05,54,14.50
2016,08,18,05,55,14.50
2016,08,18,05,56,14.50
2016,08,18,05,57,14.50
2016,08,18,05,58,14.50
2016,08,18,05,59,14.50
2016,08,18,06,00,14.60
2016,08,18,06,01,14.60
2016,08,18,06,02,14.60
2016,08,18,06,03,14.60
2016,08,18,06,04,14.60
2016,08,18,06,05,14.60
2016,08,18,06,06,14.60
2016,08,18,06,07,14.60
2016,08,18,06,08,14.60
2016,08,18,06,09,14.60
2016,08,18,06,10,14.60
2016,08,18,06,11,14.60
2016,08,18,06,12,14.60
2016,08,18,06,13,14.60
2016,08,18,06,14,14.60
2016,08,18,06,15,14.60
2016,08,18,06,16,14.60
2016,08,18,06,17,14.60
2016,08,18,06,18,14.60
2016,08,18,06,19,14.60
2016,08,18,06,20,14.60
2016,08,18,06,21,14.60
2016,08,18,06,22,14.60
2016,08,18,06,23,14.60
2016,08,18,06,24,14.60
2016,08,18,06,25,14.60
2016,08,18,06,26,14.60
2016,08,18,06,27,14.60
2016,08,18,06,28,14.60
2016,08,18,06,29,14.60
2016,08,18,06,30,14.60
2016,08,18,06,31,14.60
2016,08,18,06,32,14.70
2016,08,18,06,33,14.60
2016,08,18,06,34,14.60
2016,08,18,06,35,14.60
2016,08,18,06,36,14.60
2016,08,18,06,37,14.60
2016,08,18,06,38,14.60
2016,08,18,06,39,14.60
2016,08,18,06,40,14.60
2016,08,18,06,41,14.60
2016,08,18,06,42,14.60
2016,08,18,06,43,14.60
2016,08,18,06,44,14.60
2016,08,18,06,45,14.60
2016,08,18,06,46,14.60
2016,08,18,06,47,14.60
2016,08,18,06,48,14.70
2016,08,18,06,49,14.70
2016,08,18,06,50,14.70
2016,08,18,06,51,14.70
2016,08,18,06,52,14.70
2016,08,18,06,53,14.70
2016,08,18,06,54,14.70
2016,08,18,06,55,14.70
2016,08,18,06,56,14.70
2016,08,18,06,57,14.70
2016,08,18,06,58,14.70
2016,08,18,06,59,14.70
2016,08,18,07,00,14.70
2016,08,18,07,01,14.80
2016,08,18,07,02,14.80
2016,08,18,07,03,14.80
2016,08,18,07,04,14.80
2016,08,18,07,05,14.80
2016,08,18,07,06,14.80
2016,08,18,07,07,14.90
2016,08,18,07,08,14.90
2016,08,18,07,09,14.90
2016,08,18,07,10,14.90
2016,08,18,07,11,15.00
2016,08,18,07,12,15.00
2016,08,18,07,13,15.00
2016,08,18,07,14,15.00
2016,08,18,07,15,15.00
2016,08,18,07,16,15.00
2016,08,18,07,17,15.10
2016,08,18,07,18,15.10
2016,08,18,07,19,15.10
2016,08,18,07,20,15.10
2016,08,18,07,21,15.10
2016,08,18,07,22,15.10
2016,08,18,07,23,15.10
2016,08,18,07,24,15.20
2016,08,18,07,25,15.20
2016,08,18,07,26,15.20
2016,08,18,07,27,15.20
2016,08,18,07,28,15.20
2016,08,18,07,29,15.30
2016,08,18,07,30,15.30
2016,08,18,07,31,15.30
2016,08,18,07,32,15.30
2016,08,18,07,33,15.30
2016,08,18,07,34,15.40
2016,08,18,07,35,15.40
2016,08,18,07,36,15.40
2016,08,18,07,37,15.50
2016,08,18,07,38,15.50
2016,08,18,07,39,15.60
2016,08,18,07,40,15.60
2016,08,18,07,41,15.60
2016,08,18,07,42,15.70
2016,08,18,07,43,15.70
2016,08,18,07,44,15.80
2016,08,18,07,45,15.80
2016,08,18,07,46,15.80
2016,08,18,07,47,15.90
2016,08,18,07,48,15.90
2016,08,18,07,49,15.90
2016,08,18,07,50,16.00
2016,08,18,07,51,16.00
2016,08,18,07,52,16.10
2016,08,18,07,53,16.20
2016,08,18,07,54,16.20
2016,08,18,07,55,16.30
2016,08,18,07,56,16.40
2016,08,18,07,57,16.50
2016,08,18,07,58,16.60
2016,08,18,07,59,16.60
2016,08,18,08,00,16.70
2016,08,18,08,01,16.80
2016,08,18,08,02,16.90
2016,08,18,08,03,17.00
2016,08,18,08,04,17.10
2016,08,18,08,05,17.10
2016,08,18,08,06,17.20
2016,08,18,08,07,17.30
2016,08,18,08,08,17.40
2016,08,18,08,09,17.40
2016,08,18,08,10,17.50
2016,08,18,08,11,17.60
2016,08,18,08,12,17.60
2016,08,18,08,13,17.70
2016,08,18,08,14,17.80
2016,08,18,08,15,17.80
2016,08,18,08,16,17.80
2016,08,18,08,17,17.80
2016,08,18,08,18,17.90
2016,08,18,08,19,17.90
2016,08,18,08,20,18.00
2016,08,18,08,21,18.00
2016,08,18,08,22,18.10
2016,08,18,08,23,18.10
2016,08,18,08,24,18.20
2016,08,18,08,25,18.30
2016,08,18,08,26,18.40
2016,08,18,08,27,18.40
2016,08,18,08,28,18.50
2016,08,18,08,29,18.60
2016,08,18,08,30,18.60
2016,08,18,08,31,18.70
2016,08,18,08,32,18.70
2016,08,18,08,33,18.80
2016,08,18,08,34,18.80
2016,08,18,08,35,18.90
2016,08,18,08,36,19.00
2016,08,18,08,37,19.10
2016,08,18,08,38,19.20
2016,08,18,08,39,19.30
2016,08,18,08,40,19.30
2016,08,18,08,41,19.40
2016,08,18,08,42,19.50
2016,08,18,08,43,19.60
2016,08,18,08,44,19.70
2016,08,18,08,45,19.80
2016,08,18,08,46,19.80
2016,08,18,08,47,19.90
2016,08,18,08,48,19.90
2016,08,18,08,49,20.00
2016,08,18,08,50,20.00
2016,08,18,08,51,20.00
2016,08,18,08,52,20.10
2016,08,18,08,53,20.20
2016,08,18,08,54,20.20
2016,08,18,08,55,20.30
2016,08,18,08,56,20.30
2016,08,18,08,57,20.40
2016,08,18,08,58,20.40
2016,08,18,08,59,20.50
2016,08,18,09,00,20.60
2016,08,18,09,01,20.70
2016,08,18,09,02,20.80
2016,08,18,09,03,20.80
2016,08,18,09,04,20.90
2016,08,18,09,05,21.00
2016,08,18,09,06,21.00
2016,08,18,09,07,21.10
2016,08,18,09,08,21.20
2016,08,18,09,09,21.30
2016,08,18,09,10,21.40
2016,08,18,09,11,21.50
2016,08,18,09,12,21.60
2016,08,18,09,13,21.70
2016,08,18,09,14,21.80
2016,08,18,09,15,21.90
2016,08,18,09,16,22.00
2016,08,18,09,17,22.00
2016,08,18,09,18,22.00
2016,08,18,09,19,22.00
2016,08,18,09,20,21.90
2016,08,18,09,21,21.80
2016,08,18,09,22,21.70
2016,08,18,09,23,21.60
2016,08,18,09,24,21.50
2016,08,18,09,25,21.50
2016,08,18,09,26,21.40
2016,08,18,09,27,21.30
2016,08,18,09,28,21.30
2016,08,18,09,29,21.20
2016,08,18,09,30,21.20
2016,08,18,09,31,21.10
2016,08,18,09,32,21.10
2016,08,18,09,33,21.10
2016,08,18,09,34,21.10
2016,08,18,09,35,21.10
2016,08,18,09,36,21.10
2016,08,18,09,37,21.10
2016,08,18,09,38,21.00
2016,08,18,09,39,21.00
2016,08,18,09,40,21.00
2016,08,18,09,41,21.00
2016,08,18,09,42,21.00
2016,08,18,09,43,21.00
2016,08,18,09,44,21.00
2016,08,18,09,45,21.00
2016,08,18,09,46,21.00
2016,08,18,09,47,21.00
2016,08,18,09,48,21.10
2016,08,18,09,49,21.10
2016,08,18,09,50,21.10
2016,08,18,09,51,21.10
2016,08,18,09,52,21.10
2016,08,18,09,53,21.10
2016,08,18,09,54,21.20
2016,08,18,09,55,21.20
2016,08,18,09,56,21.20
2016,08,18,09,57,21.20
2016,08,18,09,58,21.30
2016,08,18,09,59,21.30
2016,08,18,10,00,21.30
2016,08,18,10,01,21.40
2016,08,18,10,02,21.40
2016,08,18,10,03,21.50
2016,08,18,10,04,21.50
2016,08,18,10,05,21.60
2016,08,18,10,06,21.60
2016,08,18,10,07,21.60
2016,08,18,10,08,21.60
2016,08,18,10,09,21.70
2016,08,18,10,10,21.70
2016,08,18,10,11,21.70
2016,08,18,10,12,21.70
2016,08,18,10,13,21.80
2016,08,18,10,14,21.80
2016,08,18,10,15,21.80
2016,08,18,10,16,21.80
2016,08,18,10,17,21.90
2016,08,18,10,18,21.90
2016,08,18,10,19,21.90
2016,08,18,10,20,22.00
2016,08,18,10,21,22.00
2016,08,18,10,22,22.10
2016,08,18,10,23,22.10
2016,08,18,10,24,22.10
2016,08,18,10,25,22.10
2016,08,18,10,26,22.10
2016,08,18,10,27,22.20
2016,08,18,10,28,22.20
2016,08,18,10,29,22.30
2016,08,18,10,30,22.30
2016,08,18,10,31,22.30
2016,08,18,10,32,22.30
2016,08,18,10,33,22.30
2016,08,18,10,34,22.30
2016,08,18,10,35,22.30
2016,08,18,10,36,22.20
2016,08,18,10,37,22.10
2016,08,18,10,38,22.00
2016,08,18,10,39,22.00
2016,08,18,10,40,21.90
2016,08,18,10,41,21.90
2016,08,18,10,42,21.90
2016,08,18,10,43,21.80
2016,08,18,10,44,21.80
2016,08,18,10,45,21.80
2016,08,18,10,46,21.90
2016,08,18,10,47,21.90
2016,08,18,10,48,21.90
2016,08,18,10,49,22.00
2016,08,18,10,50,22.00
2016,08,18,10,51,22.10
2016,08,18,10,52,22.10
2016,08,18,10,53,22.10
2016,08,18,10,54,22.10
2016,08,18,10,55,22.10
2016,08,18,10,56,22.10
2016,08,18,10,57,22.10
2016,08,18,10,58,22.10
2016,08,18,10,59,22.20
2016,08,18,11,00,22.20
2016,08,18,11,01,22.20
2016,08,18,11,02,22.20
2016,08,18,11,03,22.20
2016,08,18,11,04,22.30
2016,08,18,11,05,22.30
2016,08,18,11,06,22.30
2016,08,18,11,07,22.30
2016,08,18,11,08,22.30
2016,08,18,11,09,22.30
2016,08,18,11,10,22.30
2016,08,18,11,11,22.30
2016,08,18,11,12,22.30
2016,08,18,11,13,22.30
2016,08,18,11,14,22.30
2016,08,18,11,15,22.30
2016,08,18,11,16,22.30
2016,08,18,11,17,22.40
2016,08,18,11,18,22.40
2016,08,18,11,19,22.40
2016,08,18,11,20,22.40
2016,08,18,11,21,22.50
2016,08,18,11,22,22.50
2016,08,18,11,23,22.50
2016,08,18,11,24,22.50
2016,08,18,11,25,22.60
2016,08,18,11,26,22.60
2016,08,18,11,27,22.60
2016,08,18,11,28,22.70
2016,08,18,11,29,22.70
2016,08,18,11,30,22.70
2016,08,18,11,31,22.80
2016,08,18,11,32,22.80
2016,08,18,11,33,22.80
2016,08,18,11,34,22.80
2016,08,18,11,35,22.80
2016,08,18,11,36,22.90
2016,08,18,11,37,22.90
2016,08,18,11,38,22.90
2016,08,18,11,39,22.90
2016,08,18,11,40,23.00
2016,08,18,11,41,23.00
2016,08,18,11,42,23.00
2016,08,18,11,43,23.00
2016,08,18,11,44,23.00
2016,08,18,11,45,23.00
2016,08,18,11,46,23.00
2016,08,18,11,47,23.00
2016,08,18,11,48,23.00
2016,08,18,11,49,23.10
2016,08,18,11,50,23.10
2016,08,18,11,51,23.10
2016,08,18,11,52,23.10
2016,08,18,11,53,23.10
2016,08,18,11,54,23.10
2016,08,18,11,55,23.20
2016,08,18,11,56,23.20
2016,08,18,11,57,23.20
2016,08,18,11,58,23.20
2016,08,18,11,59,23.20
2016,08,18,12,00,23.20
2016,08,18,12,01,23.20
2016,08,18,12,02,23.30
2016,08,18,12,03,23.30
2016,08,18,12,04,23.30
2016,08,18,12,05,23.40
2016,08,18,12,06,23.40
2016,08,18,12,07,23.40
2016,08,18,12,08,23.40
2016,08,18,12,09,23.40
2016,08,18,12,10,23.40
2016,08,18,12,11,23.30
2016,08,18,12,12,23.30
2016,08,18,12,13,23.20
2016,08,18,12,14,23.10
2016,08,18,12,15,23.00
2016,08,18,12,16,23.00
2016,08,18,12,17,22.90
2016,08,18,12,18,22.80
2016,08,18,12,19,22.80
2016,08,18,12,20,22.70
2016,08,18,12,21,22.60
2016,08,18,12,22,22.50
2016,08,18,12,23,22.40
2016,08,18,12,24,22.30
2016,08,18,12,25,22.30
2016,08,18,12,26,22.20
2016,08,18,12,27,22.20
2016,08,18,12,28,22.10
2016,08,18,12,29,22.10
2016,08,18,12,30,22.10
2016,08,18,12,31,22.10
2016,08,18,12,32,22.10
2016,08,18,12,33,22.10
2016,08,18,12,34,22.10
2016,08,18,12,35,22.10
2016,08,18,12,36,22.10
2016,08,18,12,37,22.10
2016,08,18,12,38,22.20
2016,08,18,12,39,22.20
2016,08,18,12,40,22.30
2016,08,18,12,41,22.30
2016,08,18,12,42,22.30
2016,08,18,12,43,22.40
2016,08,18,12,44,22.40
2016,08,18,12,45,22.50
2016,08,18,12,46,22.50
2016,08,18,12,47,22.60
2016,08,18,12,48,22.60
2016,08,18,12,49,22.70
2016,08,18,12,50,22.70
2016,08,18,12,51,22.70
2016,08,18,12,52,22.80
2016,08,18,12,53,22.80
2016,08,18,12,54,22.90
2016,08,18,12,55,22.90
2016,08,18,12,56,23.00
2016,08,18,12,57,23.00
2016,08,18,12,58,23.10
2016,08,18,12,59,23.10
2016,08,18,13,00,23.20
2016,08,18,13,01,23.30
2016,08,18,13,02,23.30
2016,08,18,13,03,23.40
2016,08,18,13,04,23.50
2016,08,18,13,05,23.50
2016,08,18,13,06,23.60
2016,08,18,13,07,23.60
2016,08,18,13,08,23.70
2016,08,18,13,09,23.70
2016,08,18,13,10,23.80
2016,08,18,13,11,23.80
2016,08,18,13,12,23.80
2016,08,18,13,13,23.80
2016,08,18,13,14,23.80
2016,08,18,13,15,23.80
2016,08,18,13,16,23.80
2016,08,18,13,17,23.80
2016,08,18,13,18,23.80
2016,08,18,13,19,23.80
2016,08,18,13,20,23.90
2016,08,18,13,21,23.90
2016,08,18,13,22,23.90
2016,08,18,13,23,23.90
2016,08,18,13,24,23.90
2016,08,18,13,25,23.90
2016,08,18,13,26,23.90
2016,08,18,13,27,23.90
2016,08,18,13,28,24.00
2016,08,18,13,29,24.00
2016,08,18,13,30,24.00
2016,08,18,13,31,24.10
2016,08,18,13,32,24.10
2016,08,18,13,33,24.10
2016,08,18,13,34,24.20
2016,08,18,13,35,24.20
2016,08,18,13,36,24.20
2016,08,18,13,37,24.20
2016,08,18,13,38,24.30
2016,08,18,13,39,24.30
2016,08,18,13,40,24.40
2016,08,18,13,41,24.40
2016,08,18,13,42,24.50
2016,08,18,13,43,24.60
2016,08,18,13,44,24.60
2016,08,18,13,45,24.70
2016,08,18,13,46,24.70
2016,08,18,13,47,24.80
2016,08,18,13,48,24.90
2016,08,18,13,49,24.90
2016,08,18,13,50,24.90
2016,08,18,13,51,24.90
2016,08,18,13,52,24.90
2016,08,18,13,53,25.00
2016,08,18,13,54,24.90
2016,08,18,13,55,24.90
2016,08,18,13,56,24.90
2016,08,18,13,57,24.90
2016,08,18,13,58,24.90
2016,08,18,13,59,24.90
2016,08,18,14,00,24.80
2016,08,18,14,01,24.80
2016,08,18,14,02,24.80
2016,08,18,14,03,24.70
2016,08,18,14,04,24.70
2016,08,18,14,05,24.60
2016,08,18,14,06,24.60
2016,08,18,14,07,24.60
2016,08,18,14,08,24.60
2016,08,18,14,09,24.60
2016,08,18,14,10,24.60
2016,08,18,14,11,24.70
2016,08,18,14,12,24.70
2016,08,18,14,13,24.70
2016,08,18,14,14,24.70
2016,08,18,14,15,24.80
2016,08,18,14,16,24.80
2016,08,18,14,17,24.80
2016,08,18,14,18,24.80
2016,08,18,14,19,24.90
2016,08,18,14,20,24.90
2016,08,18,14,21,24.90
2016,08,18,14,22,24.90
2016,08,18,14,23,25.00
2016,08,18,14,24,25.00
2016,08,18,14,25,25.10
2016,08,18,14,26,25.10
2016,08,18,14,27,25.10
2016,08,18,14,28,25.10
2016,08,18,14,29,25.10
2016,08,18,14,30,25.10
2016,08,18,14,31,25.00
2016,08,18,14,32,25.00
2016,08,18,14,33,25.00
2016,08,18,14,34,24.90
2016,08,18,14,35,25.00
2016,08,18,14,36,25.00
2016,08,18,14,37,25.00
2016,08,18,14,38,25.10
2016,08,18,14,39,25.10
2016,08,18,14,40,25.10
2016,08,18,14,41,25.10
2016,08,18,14,42,25.10
2016,08,18,14,43,25.10
2016,08,18,14,44,25.10
2016,08,18,14,45,25.10
2016,08,18,14,46,25.10
2016,08,18,14,47,25.10
2016,08,18,14,48,25.20
2016,08,18,14,49,25.20
2016,08,18,14,50,25.20
2016,08,18,14,51,25.20
2016,08,18,14,52,25.30
2016,08,18,14,53,25.30
2016,08,18,14,54,25.30
2016,08,18,14,55,25.30
2016,08,18,14,56,25.40
2016,08,18,14,57,25.40
2016,08,18,14,58,25.40
2016,08,18,14,59,25.50
2016,08,18,15,00,25.50
2016,08,18,15,01,25.60
2016,08,18,15,02,25.60
2016,08,18,15,03,25.70
2016,08,18,15,04,25.70
2016,08,18,15,05,25.80
2016,08,18,15,06,25.90
2016,08,18,15,07,26.00
2016,08,18,15,08,26.00
2016,08,18,15,09,26.10
2016,08,18,15,10,26.10
2016,08,18,15,11,26.10
2016,08,18,15,12,26.10
2016,08,18,15,13,26.20
2016,08,18,15,14,26.20
2016,08,18,15,15,26.20
2016,08,18,15,16,26.20
2016,08,18,15,17,26.30
2016,08,18,15,18,26.30
2016,08,18,15,19,26.30
2016,08,18,15,20,26.30
2016,08,18,15,21,26.30
2016,08,18,15,22,26.30
2016,08,18,15,23,26.20
2016,08,18,15,24,26.20
2016,08,18,15,25,26.10
2016,08,18,15,26,26.10
2016,08,18,15,27,26.10
2016,08,18,15,28,26.00
2016,08,18,15,29,26.00
2016,08,18,15,30,26.00
2016,08,18,15,31,26.00
2016,08,18,15,32,26.00
2016,08,18,15,33,26.00
2016,08,18,15,34,26.00
2016,08,18,15,35,26.10
2016,08,18,15,36,26.10
2016,08,18,15,37,26.10
2016,08,18,15,38,26.20
2016,08,18,15,39,26.20
2016,08,18,15,40,26.20
2016,08,18,15,41,26.20
2016,08,18,15,42,26.30
2016,08,18,15,43,26.30
2016,08,18,15,44,26.30
2016,08,18,15,45,26.30
2016,08,18,15,46,26.40
2016,08,18,15,47,26.40
2016,08,18,15,48,26.40
2016,08,18,15,49,26.40
2016,08,18,15,50,26.40
2016,08,18,15,51,26.40
2016,08,18,15,52,26.30
2016,08,18,15,53,26.30
2016,08,18,15,54,26.30
2016,08,18,15,55,26.20
2016,08,18,15,56,26.20
2016,08,18,15,57,26.20
2016,08,18,15,58,26.20
2016,08,18,15,59,26.10
2016,08,18,16,00,26.10
2016,08,18,16,01,26.10
2016,08,18,16,02,26.00
2016,08,18,16,03,26.00
2016,08,18,16,04,26.00
2016,08,18,16,05,25.90
2016,08,18,16,06,25.90
2016,08,18,16,07,25.90
2016,08,18,16,08,25.90
2016,08,18,16,09,25.90
2016,08,18,16,10,25.90
2016,08,18,16,11,25.90
2016,08,18,16,12,26.00
2016,08,18,16,13,26.10
2016,08,18,16,14,26.10
2016,08,18,16,15,26.20
2016,08,18,16,16,26.30
2016,08,18,16,17,26.30
2016,08,18,16,18,26.40
2016,08,18,16,19,26.40
2016,08,18,16,20,26.50
2016,08,18,16,21,26.50
2016,08,18,16,22,26.60
2016,08,18,16,23,26.60
2016,08,18,16,24,26.60
2016,08,18,16,25,26.70
2016,08,18,16,26,26.70
2016,08,18,16,27,26.80
2016,08,18,16,28,26.80
2016,08,18,16,29,26.80
2016,08,18,16,30,26.90
2016,08,18,16,31,27.00
2016,08,18,16,32,27.00
2016,08,18,16,33,27.10
2016,08,18,16,34,27.10
2016,08,18,16,35,27.10
2016,08,18,16,36,27.20
2016,08,18,16,37,27.20
2016,08,18,16,38,27.20
2016,08,18,16,39,27.20
2016,08,18,16,40,27.30
2016,08,18,16,41,27.30
2016,08,18,16,42,27.40
2016,08,18,16,43,27.40
2016,08,18,16,44,27.40
2016,08,18,16,45,27.50
2016,08,18,16,46,27.50
2016,08,18,16,47,27.60
2016,08,18,16,48,27.60
2016,08,18,16,49,27.70
2016,08,18,16,50,27.70
2016,08,18,16,51,27.70
2016,08,18,16,52,27.80
2016,08,18,16,53,27.80
2016,08,18,16,54,27.90
2016,08,18,16,55,27.90
2016,08,18,16,56,28.00
2016,08,18,16,57,28.00
2016,08,18,16,58,28.10
2016,08,18,16,59,28.20
2016,08,18,17,00,28.20
2016,08,18,17,01,28.30
2016,08,18,17,02,28.30
2016,08,18,17,03,28.30
2016,08,18,17,04,28.30
2016,08,18,17,05,28.30
2016,08,18,17,06,28.30
2016,08,18,17,07,28.30
2016,08,18,17,08,28.30
2016,08,18,17,09,28.30
2016,08,18,17,10,28.30
2016,08,18,17,11,28.30
2016,08,18,17,12,28.30
2016,08,18,17,13,28.30
2016,08,18,17,14,28.30
2016,08,18,17,15,28.30
2016,08,18,17,16,28.30
2016,08,18,17,17,28.30
2016,08,18,17,18,28.30
2016,08,18,17,19,28.30